Wind_Speed
10 11 11 12 12 12 13 13 14 14 15 15 16 16 16 16 17 18 18 18 19 20 21 21 21 22 22 21 21 21 21 20 20 20 20 21 21 21
10 11 12 13 13 13 14 15 16 16 15 15 16 16 16 17 17 18 19 20 21 21 21 21 22 22 22 23 23 22 21 22 21 21 22 22 22 22
11 11 12 13 14 14 15 16 16 16 16 16 16 17 18 18 18 19 19 20 21 21 21 22 22 23 23 23 23 22 22 22 22 23 23 23 23 23
13 13 14 15 15 15 16 16 17 17 17 17 18 19 19 20 21 21 21 21 21 21 21 22 22 22 23 23 23 23 23 23 24 24 24 24 24 24
16 16 17 17 17 17 18 18 19 19 19 19 20 21 21 21 22 22 22 22 21 22 22 23 24 24 24 24 24 24 25 25 25 25 25 25 25 25
18 19 19 19 20 20 20 20 20 21 21 21 22 22 23 23 23 23 23 23 23 23 24 24 24 25 25 26 26 27 27 27 27 27 27 27 27 26
20 21 21 21 22 22 22 22 23 23 23 23 24 24 24 24 25 25 25 24 24 25 25 25 26 26 27 27 28 29 29 29 29 29 29 29 28 28
23 23 23 23 23 24 24 24 25 25 25 25 25 25 25 26 26 27 27 27 27 27 27 27 27 28 28 29 30 31 31 31 30 30 30 30 30 29
24 25 25 25 25 26 27 27 27 27 27 28 28 27 28 28 28 28 29 30 29 29 29 29 30 31 31 31 30 31 32 31 32 32 31 31 31 30
25 26 26 27 28 28 28 28 28 29 29 29 29 29 29 29 30 30 30 31 31 30 31 31 31 32 32 32 32 33 33 33 33 33 32 31 31 30
26 26 27 28 29 29 29 28 29 30 31 31 31 30 31 31 32 32 32 32 31 32 33 33 33 33 33 33 33 34 34 34 34 34 34 33 32 31
27 27 27 28 29 29 29 30 30 31 32 33 32 33 33 33 34 34 34 34 33 33 33 33 33 34 33 33 33 33 34 34 34 34 34 34 34 33
28 28 28 28 29 30 30 31 31 32 33 34 34 35 35 35 35 36 36 36 36 35 34 34 34 34 34 33 33 33 34 34 34 34 35 35 35 35
28 28 28 29 29 30 31 32 32 33 34 35 36 37 37 37 37 37 37 37 37 36 36 36 36 35 35 34 34 34 35 35 35 35 35 36 36 36
29 30 30 31 31 31 31 32 33 33 35 36 36 37 37 37 37 37 38 39 39 38 38 37 37 37 37 37 36 36 36 36 36 36 36 36 37 37
29 29 30 31 31 31 32 32 32 33 33 34 35 36 36 37 37 37 37 38 38 38 38 39 39 39 38 38 38 37 37 37 37 37 37 37 38 38
29 29 29 30 30 31 32 32 33 33 34 35 35 35 36 36 36 37 37 38 37 38 38 38 39 40 40 39 39 39 38 38 38 38 39 38 39 39
29 28 29 30 31 32 32 33 33 34 35 36 35 36 36 36 36 37 37 37 37 37 38 38 39 40 40 40 40 39 39 39 39 39 38 38 39 40
29 30 31 31 32 33 33 34 34 35 35 35 36 36 36 37 37 36 37 37 37 37 37 38 39 39 40 39 39 39 39 39 40 40 39 39 39 40
30 31 31 32 32 33 33 34 34 34 35 35 36 36 37 37 37 36 36 36 36 37 37 37 37 37 37 37 37 38 39 39 39 40 40 40 40 40
30 31 31 32 32 33 34 35 35 35 35 36 36 37 37 37 37 37 36 36 37 37 37 37 37 37 37 36 37 37 38 39 39 39 39 39 39 39
30 31 32 32 32 33 34 35 35 35 35 36 36 37 37 37 37 37 37 37 37 37 36 36 37 37 36 36 37 37 38 38 39 39 39 39 39 39
30 31 31 33 34 35 35 34 34 34 35 36 36 35 36 36 36 36 36 36 36 36 36 36 36 36 36 37 37 37 37 37 38 39 39 39 38 38
Wind_Direction
276 274 273 274 275 275 275 275 278 280 280 277 275 277 276 276 275 275 275 275 274 273 273 273 274 273 274 273 273 272 271 272 273 270 269 268 267 265
282 278 277 279 279 279 280 280 281 281 280 280 280 283 282 279 278 277 274 275 275 274 274 274 274 273 272 272 271 271 271 272 272 271 271 270 268 265
286 286 288 286 284 283 282 283 284 284 282 281 282 284 282 281 280 281 280 279 279 278 277 277 275 274 273 272 271 270 271 273 272 272 273 272 269 265
281 283 285 286 286 285 285 285 286 287 287 285 284 283 281 279 280 281 281 280 279 280 279 279 278 276 275 274 272 271 271 273 272 272 272 271 269 267
279 281 281 283 284 284 285 286 285 286 285 285 283 282 281 280 280 281 280 279 278 279 279 279 277 276 275 274 273 272 271 271 271 271 271 271 268 267
283 282 283 282 283 284 285 285 284 284 283 282 281 281 281 280 280 280 280 280 278 279 280 279 278 277 276 274 273 272 271 271 272 271 270 270 268 268
284 283 283 283 284 284 285 284 284 283 280 279 280 280 281 280 279 279 279 280 280 280 279 279 279 278 275 274 273 272 272 271 270 269 269 269 269 269
282 283 283 283 284 285 284 284 284 284 281 280 280 279 279 279 278 279 279 279 279 280 280 279 278 277 275 274 273 272 271 271 270 268 268 269 269 268
283 282 282 283 283 284 285 285 286 285 283 281 279 278 278 277 277 278 279 280 279 279 279 278 278 277 275 274 273 272 271 271 271 269 267 269 270 269
282 282 282 282 283 285 285 284 284 285 285 284 282 281 280 279 279 278 279 279 279 278 278 278 277 276 276 275 274 273 272 272 270 269 269 269 269 268
282 284 284 283 283 283 284 284 284 284 284 286 284 283 282 281 281 280 279 279 278 278 278 278 278 277 276 275 274 273 273 271 269 269 269 269 268 267
283 283 283 283 283 282 282 284 284 285 285 285 284 284 284 283 281 281 280 278 278 277 277 277 277 277 275 274 273 273 272 271 270 269 268 268 268 268
284 284 284 284 284 283 284 285 286 286 286 286 286 285 283 283 284 283 281 279 278 278 278 277 276 276 275 273 271 271 272 272 272 271 269 268 268 267
283 285 286 286 286 286 287 288 288 288 287 286 286 285 284 284 284 283 282 280 279 279 278 278 277 276 275 274 273 271 272 272 273 272 270 269 268 268
285 284 285 286 288 289 289 289 290 289 288 287 286 285 285 285 284 283 283 281 280 280 278 278 278 277 276 275 273 272 271 271 271 272 271 270 268 267
287 286 286 286 287 289 289 290 291 291 290 289 288 288 287 287 285 284 283 280 280 280 280 279 278 277 277 276 275 273 271 271 271 272 271 270 268 267
288 288 289 289 290 290 290 290 291 291 291 291 291 290 290 289 288 286 283 280 279 279 278 278 277 277 276 276 276 274 273 272 271 271 271 270 268 266
289 288 289 291 292 292 293 293 292 292 292 291 290 290 290 290 289 286 285 283 282 281 279 278 277 276 275 274 274 273 273 274 273 273 273 270 267 266
290 290 291 292 293 293 293 294 294 293 293 293 293 292 292 292 291 289 287 286 284 283 281 280 278 276 276 274 274 274 274 273 272 271 270 269 267 266
293 291 291 291 292 294 294 294 294 294 294 294 294 293 293 293 293 291 289 288 287 286 284 283 282 279 278 278 276 275 273 273 272 270 269 268 267 267
293 293 292 291 291 294 295 295 295 294 293 294 294 293 293 293 293 292 290 288 288 286 284 282 281 281 280 279 277 276 274 273 272 271 270 268 267 268
293 293 293 292 292 294 294 294 294 294 294 294 294 293 294 293 292 291 289 288 287 287 286 284 282 282 282 280 279 278 276 273 272 272 270 267 267 267
294 294 293 294 294 295 296 296 296 297 296 294 295 295 295 295 293 291 291 290 289 288 287 286 284 283 282 281 279 278 277 275 273 272 270 268 267 267
Height
5868 5868 5867 5866 5866 5865 5865 5864 5864 5863 5862 5860 5859 5857 5856 5855 5854 5853 5852 5851 5850 5849 5848 5847 5846 5845 5845 5844 5843 5842 5842 5841 5840 5839 5839 5839 5838 5838
5865 5864 5864 5863 5862 5861 5860 5859 5858 5858 5857 5856 5854 5852 5851 5850 5849 5847 5846 5845 5844 5843 5842 5841 5840 5839 5838 5838 5837 5836 5836 5835 5834 5834 5833 5833 5832 5832
5861 5860 5859 5859 5858 5856 5855 5854 5853 5852 5851 5850 5849 5847 5846 5845 5843 5842 5841 5839 5838 5837 5836 5835 5834 5833 5832 5831 5831 5830 5829 5829 5828 5828 5827 5827 5826 5826
5857 5856 5855 5854 5853 5852 5850 5849 5848 5846 5845 5844 5843 5841 5840 5839 5837 5836 5834 5833 5832 5831 5829 5828 5827 5826 5826 5825 5824 5823 5823 5822 5821 5821 5820 5820 5820 5819
5853 5851 5850 5849 5848 5846 5845 5844 5842 5840 5839 5837 5836 5835 5833 5832 5831 5829 5828 5827 5825 5824 5823 5821 5820 5819 5819 5818 5817 5816 5816 5815 5815 5814 5813 5813 5813 5812
5847 5846 5844 5843 5842 5840 5839 5837 5836 5834 5832 5831 5829 5828 5826 5825 5824 5823 5821 5820 5819 5817 5815 5814 5813 5812 5811 5811 5810 5809 5808 5808 5807 5807 5806 5805 5805 5805
5841 5840 5839 5837 5836 5834 5832 5831 5829 5827 5825 5823 5822 5820 5819 5817 5816 5815 5814 5812 5811 5809 5808 5807 5806 5805 5804 5803 5802 5801 5800 5799 5799 5798 5798 5797 5797 5797
5835 5833 5832 5830 5828 5827 5825 5823 5821 5819 5817 5815 5814 5812 5811 5809 5808 5807 5806 5805 5803 5802 5800 5799 5798 5797 5796 5794 5793 5792 5792 5791 5790 5790 5789 5789 5789 5788
5827 5826 5824 5823 5821 5819 5817 5815 5813 5811 5809 5807 5805 5804 5802 5801 5799 5798 5797 5795 5794 5792 5790 5790 5788 5787 5787 5785 5784 5783 5782 5782 5781 5780 5780 5779 5779 5779
5819 5818 5816 5814 5812 5811 5809 5807 5805 5802 5800 5798 5796 5794 5793 5791 5790 5789 5787 5786 5784 5783 5781 5780 5779 5777 5776 5776 5775 5774 5773 5772 5772 5771 5770 5770 5770 5770
5811 5809 5807 5806 5804 5802 5800 5798 5796 5793 5791 5789 5787 5785 5783 5781 5780 5778 5776 5775 5774 5773 5771 5770 5768 5767 5766 5765 5764 5763 5763 5762 5761 5761 5761 5760 5760 5760
5802 5800 5798 5796 5794 5792 5791 5789 5787 5784 5781 5779 5777 5775 5773 5771 5769 5767 5766 5764 5763 5762 5761 5759 5757 5756 5756 5755 5754 5753 5752 5751 5751 5750 5750 5750 5750 5750
5792 5791 5789 5787 5785 5783 5781 5779 5777 5774 5772 5769 5767 5765 5763 5761 5759 5757 5755 5753 5752 5751 5750 5748 5746 5745 5744 5744 5744 5742 5742 5741 5741 5740 5739 5739 5739 5739
5784 5782 5780 5777 5775 5773 5771 5769 5767 5764 5762 5759 5757 5754 5752 5750 5748 5745 5743 5741 5740 5739 5738 5736 5735 5734 5733 5732 5732 5732 5731 5730 5730 5729 5729 5728 5728 5727
5775 5773 5770 5768 5766 5764 5761 5759 5756 5753 5751 5748 5746 5743 5741 5738 5736 5734 5731 5729 5727 5726 5725 5724 5723 5722 5721 5720 5720 5720 5719 5718 5718 5717 5717 5716 5716 5716
5765 5763 5761 5759 5756 5754 5751 5748 5745 5743 5740 5737 5735 5732 5729 5726 5724 5721 5719 5716 5715 5714 5713 5712 5710 5709 5708 5708 5708 5707 5707 5706 5706 5705 5705 5704 5704 5704
5757 5754 5752 5749 5747 5744 5741 5738 5735 5733 5730 5727 5724 5721 5718 5716 5713 5710 5707 5704 5703 5702 5701 5699 5698 5696 5696 5695 5695 5694 5694 5693 5693 5692 5692 5692 5692 5691
5747 5745 5742 5740 5737 5735 5731 5728 5725 5722 5720 5716 5713 5710 5707 5705 5702 5698 5695 5693 5691 5690 5688 5687 5685 5684 5683 5682 5682 5681 5681 5681 5680 5679 5678 5679 5679 5679
5738 5736 5733 5730 5728 5725 5722 5719 5715 5712 5709 5706 5702 5699 5696 5693 5690 5687 5684 5681 5679 5677 5675 5674 5672 5671 5670 5670 5670 5668 5668 5667 5667 5666 5666 5666 5666 5666
5729 5726 5723 5721 5718 5714 5711 5708 5705 5702 5699 5695 5692 5688 5685 5682 5679 5676 5673 5670 5668 5666 5664 5661 5660 5658 5657 5657 5656 5655 5654 5654 5653 5653 5653 5652 5652 5653
5719 5716 5714 5711 5708 5705 5701 5698 5695 5692 5688 5685 5681 5678 5674 5671 5668 5665 5662 5659 5657 5654 5652 5650 5648 5646 5644 5643 5643 5642 5642 5640 5640 5640 5639 5639 5639 5639
5710 5707 5704 5701 5698 5695 5691 5688 5685 5681 5678 5674 5670 5667 5663 5660 5657 5653 5650 5648 5645 5643 5640 5639 5636 5634 5633 5631 5630 5629 5629 5628 5627 5626 5626 5626 5626 5626
5701 5698 5695 5692 5688 5684 5681 5678 5674 5670 5666 5663 5660 5656 5653 5649 5645 5642 5639 5636 5633 5631 5629 5626 5624 5622 5620 5619 5618 5616 5615 5614 5613 5613 5613 5612 5612 5613